Wind_Speed
18 19 20 20 20 21 21 21 20 20 19 18 16 15 14 13 12 12 12 12 12 11 11 12 12 11 9 9 10 12 12 10 10 10 8 7 8 8 8 10 11 10 8 8 7 6 5 5 4 2 2 3 3 4 6 7 6 6 7 8 11 11 12 14 14 12 13 12 11 12 11 9 8 7 6 6 7 9 8 10 15 18 17 16 18 20 21 21
17 18 19 19 20 20 21 21 21 21 20 19 18 17 16 15 14 13 12 13 13 12 11 12 12 11 10 9 10 12 11 10 10 9 8 7 8 9 10 10 11 10 8 8 7 6 5 4 5 3 4 3 3 5 7 7 7 8 9 10 11 12 13 15 15 14 15 14 13 13 12 12 10 9 7 6 8 10 9 12 20 21 18 19 20 22 23 22
17 18 18 19 19 20 20 21 21 21 21 20 19 18 17 16 15 14 13 13 13 13 12 12 12 12 10 10 10 11 11 10 9 8 7 7 9 10 11 12 11 10 9 8 8 7 5 4 5 3 3 3 3 5 6 6 8 9 10 12 12 14 16 16 16 15 15 14 14 14 13 13 11 10 9 8 9 9 10 14 20 21 19 20 22 22 23 24
18 18 18 18 19 19 20 20 21 21 21 20 20 19 18 17 16 15 15 14 14 14 13 12 12 12 10 10 10 11 9 7 8 8 8 8 9 11 12 12 12 12 12 10 9 8 5 3 3 2 4 4 5 6 7 8 9 10 12 13 12 14 16 15 16 15 14 14 14 14 13 13 11 10 11 10 11 12 14 15 16 17 19 22 23 23 23 24
18 18 18 19 19 19 19 20 20 20 20 20 20 20 19 19 17 17 16 15 15 14 14 13 12 12 11 10 10 11 6 4 8 6 8 9 10 12 13 13 13 13 13 11 10 9 7 5 5 4 5 4 6 9 9 9 10 12 13 12 12 14 16 15 15 14 13 14 14 14 12 12 12 11 12 10 12 15 16 19 18 17 20 22 22 23 22 23
19 19 19 19 19 19 19 19 20 20 19 19 19 19 19 19 18 18 17 16 16 15 15 13 13 12 11 10 11 12 10 8 10 7 8 10 11 12 14 14 14 14 13 12 11 9 9 9 8 7 6 5 7 10 11 10 11 13 13 13 14 15 16 16 15 13 13 14 13 14 13 12 13 12 11 12 13 15 17 19 20 20 20 21 22 22 23 23
19 20 19 19 19 19 19 19 19 19 19 19 18 19 19 19 19 19 18 17 17 17 16 14 13 12 12 11 12 15 16 13 11 9 11 11 11 13 15 16 15 14 13 13 12 10 9 8 8 11 9 8 10 11 12 12 12 14 13 13 14 15 16 16 15 14 14 14 13 13 12 12 13 12 13 14 14 16 19 19 20 23 22 21 21 21 22 22
18 19 19 20 20 20 19 19 19 19 19 19 18 18 18 18 19 19 19 18 18 18 17 15 14 13 13 12 14 16 16 15 10 9 13 12 12 14 16 17 15 13 13 12 11 11 11 9 10 14 11 10 12 12 13 14 14 15 14 14 15 15 15 17 16 14 14 13 12 12 11 12 13 13 15 16 15 17 22 23 21 23 22 21 22 22 23 22
16 17 18 19 19 20 19 19 18 18 19 19 18 17 17 17 18 19 19 19 19 19 18 16 14 14 14 13 16 15 15 18 12 9 13 13 14 16 17 16 14 13 13 13 11 11 12 9 9 14 13 13 14 12 13 15 14 15 16 19 20 16 15 18 16 12 13 11 9 10 11 13 14 14 16 17 19 22 25 25 23 22 19 20 22 23 24 23
17 17 17 17 18 19 19 19 18 18 18 19 18 17 16 17 17 19 20 20 20 20 18 17 15 15 15 14 16 15 16 23 16 11 14 14 15 17 17 15 13 13 14 14 11 11 11 7 8 14 13 14 14 12 13 14 12 14 17 19 19 16 14 18 16 12 11 8 7 8 11 12 14 16 18 21 23 24 25 25 26 25 20 19 21 22 24 23
18 18 17 17 18 18 19 19 18 17 17 18 18 17 17 16 17 18 20 21 20 20 19 18 16 15 16 16 19 19 20 24 18 14 15 15 16 16 15 14 14 14 15 15 12 9 9 9 10 12 11 12 12 11 13 12 11 17 19 16 16 15 14 15 15 13 8 6 5 7 11 12 16 17 19 24 25 26 26 26 27 26 23 22 21 22 24 24
18 18 18 18 18 18 18 18 18 17 17 18 18 17 17 16 16 17 20 21 21 21 19 18 17 16 17 17 19 22 23 21 18 15 15 15 16 16 15 15 14 15 16 14 9 6 9 11 11 10 12 15 15 12 12 12 14 20 22 16 14 13 12 14 15 13 7 4 3 6 9 12 16 18 21 25 26 26 27 27 25 25 24 23 22 23 25 24
18 18 18 18 18 18 17 17 17 17 17 17 17 17 17 17 16 16 19 21 21 21 20 19 18 17 17 16 18 24 25 19 16 16 16 16 16 16 16 16 15 16 16 10 6 7 10 12 12 11 15 17 16 15 14 14 15 19 20 15 12 11 11 13 13 9 5 3 6 6 9 14 17 21 25 26 27 27 28 25 22 24 24 22 23 25 25 24
20 19 18 18 18 18 17 17 17 16 16 17 17 17 17 17 16 16 18 21 22 21 20 19 18 17 17 17 21 27 26 19 16 16 16 16 16 16 17 16 17 18 16 11 9 11 11 12 14 15 17 16 14 15 16 14 14 17 16 11 11 11 9 11 10 4 1 3 6 5 9 15 19 24 27 25 27 26 26 24 21 23 23 22 23 23 23 22
21 20 19 18 18 17 17 16 16 16 16 17 17 17 17 17 16 16 17 19 21 21 20 19 17 18 17 17 20 23 23 19 16 17 17 17 16 16 17 17 17 18 15 12 13 12 12 13 14 15 15 14 14 16 17 15 15 16 13 10 11 10 9 11 7 2 4 4 3 5 11 18 22 26 25 23 25 26 25 24 22 22 21 22 23 23 23 23
21 20 18 18 17 16 15 15 15 15 16 16 16 17 17 17 16 16 17 19 21 21 20 19 17 18 16 16 20 21 21 20 18 18 18 17 16 16 17 17 16 17 15 14 15 12 11 13 13 14 14 12 12 16 18 16 14 12 9 9 13 10 8 9 4 4 5 5 4 4 14 22 24 24 23 21 22 24 24 24 24 22 21 22 23 23 26 25
20 19 18 17 15 15 14 14 14 14 15 16 16 16 17 17 16 16 16 18 20 20 19 18 17 18 17 18 22 19 19 21 20 19 18 18 18 17 16 16 16 16 15 14 15 11 10 12 12 12 13 11 12 15 17 16 12 9 9 10 14 11 7 6 0 5 4 6 5 8 16 21 23 22 23 22 21 24 24 25 25 23 22 23 23 23 26 26
20 19 18 16 14 14 13 13 14 14 14 14 15 16 16 16 16 16 16 17 19 19 18 18 17 14 12 16 18 15 16 22 22 19 18 20 20 17 16 16 15 14 12 12 13 12 11 12 12 13 13 13 12 13 14 15 12 9 10 11 14 10 6 5 3 6 6 6 6 10 14 17 20 20 20 20 21 23 23 24 24 23 22 23 23 22 25 25
20 19 18 16 14 13 12 13 13 14 13 12 13 14 14 15 16 15 16 17 19 17 10 13 18 11 4 8 9 10 15 21 23 20 18 20 21 18 16 15 12 12 12 12 13 12 11 11 12 14 13 13 11 13 15 14 13 9 9 13 15 10 6 4 6 8 6 5 7 11 12 14 16 16 18 18 20 22 23 25 23 23 22 22 23 22 24 24
20 18 17 15 15 13 12 12 13 14 12 11 12 12 12 11 9 11 15 17 18 17 8 6 14 10 2 5 5 11 19 24 23 20 19 20 20 17 16 15 11 13 14 13 13 11 11 12 14 15 13 13 11 13 14 13 12 8 7 13 12 8 6 4 5 8 8 5 6 10 10 13 11 12 18 17 17 22 24 25 24 23 22 22 23 23 23 23
20 19 17 15 15 13 12 11 12 13 11 10 11 13 14 13 10 9 15 16 16 19 16 9 12 11 3 5 12 18 20 22 21 19 19 20 19 17 17 17 14 15 16 14 13 12 12 14 16 16 15 15 14 12 12 12 11 6 7 11 9 7 7 2 3 7 8 7 9 8 6 9 7 11 24 22 16 21 23 24 23 23 22 22 23 23 23 24
19 19 18 16 14 12 10 10 11 11 10 10 11 16 19 19 19 16 14 14 14 19 21 15 14 13 9 8 13 17 14 16 20 19 20 20 19 18 17 18 17 16 16 14 15 15 15 17 16 16 15 16 16 13 11 11 11 9 9 10 8 7 6 1 3 6 6 6 9 9 6 7 6 9 21 21 17 18 20 23 24 22 23 23 23 23 24 24
19 20 19 17 14 10 8 9 10 9 9 10 12 17 18 17 20 16 11 12 12 15 22 22 18 15 15 11 8 13 14 14 18 19 22 22 20 19 17 17 18 17 16 16 17 16 17 17 13 12 12 13 14 11 9 11 13 10 9 10 10 7 5 2 4 7 7 6 6 10 8 7 10 10 12 13 16 18 17 22 24 22 22 22 23 23 23 24
19 19 19 18 13 8 7 7 8 7 7 9 12 14 14 15 18 14 9 10 9 11 18 22 19 16 17 14 9 12 15 13 16 19 24 23 20 20 17 16 17 18 18 17 19 19 18 16 12 9 9 11 12 10 11 11 10 10 10 11 11 8 7 5 4 7 6 5 5 9 10 8 13 14 13 13 15 19 19 20 23 22 21 21 22 23 22 25
19 18 19 17 12 8 7 6 5 5 5 8 11 12 11 13 16 12 8 7 7 9 13 18 20 17 16 16 14 13 13 14 16 18 25 24 21 20 18 16 17 19 19 18 19 20 20 18 16 13 10 11 11 10 12 10 10 11 10 8 9 9 5 4 3 8 7 4 5 8 8 9 16 18 17 17 17 18 19 17 20 22 22 21 23 23 23 25
19 18 18 17 11 8 6 3 2 2 6 8 11 12 13 14 14 12 9 6 9 12 13 16 20 18 17 18 16 13 11 14 16 17 25 25 21 20 18 17 17 18 18 17 18 19 19 17 17 17 14 13 13 12 11 10 12 13 8 6 10 10 6 2 5 8 6 2 5 8 6 4 12 19 19 19 18 18 18 18 20 23 23 22 23 25 24 24
18 17 16 15 10 7 5 2 0 4 9 10 11 12 14 15 13 12 10 7 11 14 14 16 17 16 17 18 17 15 10 12 16 18 23 24 23 21 20 19 17 18 17 15 18 17 16 17 16 16 16 14 14 14 12 11 13 14 11 8 13 12 6 8 9 11 4 1 4 9 9 3 7 15 19 21 20 20 21 22 24 25 26 24 23 25 24 24
17 16 15 13 9 6 4 2 2 3 7 10 14 15 15 15 14 14 8 5 8 14 14 17 18 16 16 15 18 18 9 6 15 20 20 22 25 22 22 22 18 17 16 16 19 15 12 15 15 15 15 15 14 14 12 11 12 14 12 11 14 14 12 11 10 14 3 0 7 10 11 5 5 9 14 21 23 22 24 24 24 25 27 26 24 25 25 25
16 14 14 12 8 6 3 3 5 5 7 11 15 16 16 15 15 13 5 4 8 13 12 16 19 17 17 15 17 20 13 6 13 20 20 20 25 24 20 22 20 18 17 18 21 18 13 12 12 12 13 14 14 12 12 12 13 13 11 12 14 14 15 9 9 7 3 4 9 12 14 8 5 10 14 19 26 28 27 26 24 24 27 27 26 27 25 25
15 13 13 10 8 5 2 3 7 9 12 14 15 16 16 17 15 9 6 4 8 10 12 15 16 17 20 18 17 20 18 11 10 15 18 18 23 26 19 17 20 20 19 19 22 22 19 15 12 12 12 12 12 11 11 12 13 14 13 14 15 14 15 9 2 3 5 5 9 14 16 10 6 12 18 23 29 32 31 29 27 28 29 29 28 28 27 26
14 12 12 9 7 4 3 4 8 12 15 16 16 16 16 16 11 7 4 5 7 9 12 15 15 17 21 20 18 20 20 16 11 12 16 16 20 26 23 17 18 19 19 19 20 21 21 21 18 17 14 13 15 14 12 10 10 12 13 15 15 12 12 8 3 3 1 4 8 14 16 12 9 12 15 22 27 30 33 34 33 31 32 32 30 29 27 26
13 12 11 8 6 4 5 7 10 13 16 16 17 18 15 10 10 10 4 4 5 8 9 12 16 18 20 20 18 20 21 19 16 14 16 18 20 25 27 22 18 16 17 16 16 18 20 21 20 18 15 13 14 16 15 14 13 14 14 14 12 6 5 4 4 3 2 8 9 9 15 12 13 13 9 13 22 28 33 35 35 32 32 33 34 30 27 26
12 11 9 8 6 3 7 10 11 14 16 17 19 18 9 3 10 9 4 1 2 7 7 11 16 17 19 20 18 19 21 20 18 16 16 18 19 23 27 26 21 17 16 15 14 16 16 18 20 20 19 18 17 17 16 13 11 13 14 14 11 4 2 0 3 4 3 7 11 3 13 10 15 14 7 6 16 26 32 33 32 32 32 30 30 30 28 27
12 10 8 7 6 3 8 10 12 14 17 19 19 12 3 7 7 3 2 4 6 6 5 10 14 15 17 19 18 19 21 20 18 16 17 18 19 21 24 26 26 22 18 17 15 14 14 13 16 20 20 19 20 20 18 14 11 12 11 12 9 3 1 1 4 4 4 7 12 7 3 7 15 10 5 5 15 22 26 27 22 24 30 29 27 29 31 29
10 9 8 8 6 4 7 10 13 15 17 19 14 4 7 9 5 5 2 5 3 3 5 9 11 13 16 17 16 19 20 19 18 17 18 19 20 20 21 24 26 26 22 18 15 14 14 13 15 20 17 14 17 17 17 16 14 13 10 10 7 2 6 4 5 6 6 7 8 7 3 8 8 3 2 5 18 20 19 22 18 19 27 30 29 32 32 30
9 8 7 8 6 5 5 9 14 16 19 16 5 7 12 10 8 10 8 7 2 1 5 8 10 11 15 15 15 19 20 18 18 18 18 19 21 20 20 21 23 27 25 20 15 13 13 13 15 16 13 11 13 13 15 16 14 9 6 6 4 3 9 7 2 7 5 3 5 7 5 10 8 3 2 7 16 16 15 20 21 23 27 29 31 33 31 29
8 6 7 9 6 6 5 8 13 16 18 12 2 8 9 9 4 5 3 3 1 1 3 7 10 11 13 13 15 18 18 16 17 18 17 19 21 21 21 20 19 24 27 23 19 14 12 14 16 14 14 13 12 10 12 16 16 13 7 4 3 4 9 7 4 4 4 2 6 9 8 15 16 6 7 9 13 15 14 16 20 24 26 28 31 31 29 27
5 4 11 15 9 4 6 9 13 16 16 9 4 4 4 7 3 3 4 3 3 4 7 8 7 10 11 13 15 17 18 16 16 17 17 17 19 20 21 21 19 21 23 25 24 16 12 16 17 14 15 13 12 12 13 15 17 18 12 6 3 4 8 5 4 3 3 1 3 7 10 13 13 8 9 10 13 17 16 13 17 20 20 24 29 28 28 29
5 4 10 15 11 2 6 9 13 16 15 10 10 8 6 6 4 4 4 4 5 7 9 9 7 10 12 11 13 17 20 19 17 16 16 16 16 17 20 20 19 20 21 24 25 18 13 16 16 8 10 10 13 15 15 15 17 17 15 12 9 7 5 5 3 2 2 1 2 6 10 3 5 2 4 7 12 16 16 15 21 20 14 20 29 28 28 30
7 5 5 11 11 4 4 9 12 15 15 11 11 11 7 5 4 3 4 5 6 8 9 9 6 5 8 10 10 15 19 18 17 16 14 14 13 12 16 18 18 19 20 21 23 20 16 17 17 9 7 8 13 15 15 15 14 15 15 14 11 8 7 5 4 1 5 3 2 2 6 3 8 11 12 5 10 14 15 18 25 21 11 17 27 28 28 29
9 5 6 11 10 5 3 7 9 12 12 12 10 10 8 6 5 3 4 6 7 8 8 9 9 7 6 8 8 11 17 16 16 17 13 13 13 9 12 16 17 17 19 20 23 22 19 17 17 15 9 8 11 12 12 14 13 12 13 13 11 8 6 3 1 1 8 5 1 2 4 2 7 15 15 5 5 11 15 18 22 21 16 20 24 24 25 27
12 6 8 11 10 4 4 4 4 6 10 13 12 12 11 9 8 7 6 7 7 7 7 9 10 10 8 9 9 7 14 14 16 18 14 14 15 11 10 14 15 16 17 18 21 22 20 17 15 17 14 10 10 12 12 13 14 13 11 10 10 8 4 3 3 1 9 7 4 6 5 1 8 19 14 9 3 9 17 15 17 21 22 24 24 24 24 24
7 5 12 12 9 5 4 4 5 7 12 14 13 13 12 9 9 8 6 7 8 7 7 8 9 10 9 10 13 10 10 14 15 17 14 13 14 10 8 12 14 16 16 15 18 20 21 19 16 16 17 18 14 8 11 12 13 15 14 12 11 11 6 4 4 2 10 12 5 6 5 5 8 18 10 8 8 6 14 13 16 20 23 24 24 26 26 26
3 3 11 11 5 5 5 5 5 7 12 15 13 12 12 10 9 9 7 7 7 8 7 7 9 9 8 9 13 11 4 10 14 16 15 12 12 10 8 10 12 16 17 14 15 18 19 20 18 15 12 12 11 7 10 13 13 15 14 11 11 11 9 7 6 6 9 11 8 3 6 10 4 13 10 7 10 3 5 9 12 16 22 24 22 20 21 24
4 1 8 10 7 6 8 8 7 9 10 12 12 12 12 12 11 12 12 9 8 7 7 7 7 8 6 8 11 10 8 8 10 14 16 12 11 12 11 10 10 14 16 13 12 15 17 17 18 16 11 7 7 9 11 12 12 10 13 12 11 10 10 11 10 9 7 5 13 15 7 12 7 7 8 4 8 7 4 3 4 13 24 27 23 18 18 21
5 3 5 11 11 8 8 7 8 10 9 10 11 11 11 11 9 10 12 12 10 9 10 9 7 8 9 9 10 10 11 10 7 10 15 13 12 15 14 11 10 12 14 15 13 12 14 16 18 19 18 15 14 12 8 7 10 11 13 16 16 13 12 13 12 11 9 7 12 17 9 11 10 2 6 4 8 11 8 5 5 16 24 25 21 17 18 21
4 5 5 8 9 8 8 8 9 12 11 10 10 8 8 9 7 7 10 12 11 11 12 11 9 10 11 10 11 11 11 11 10 8 11 13 11 11 12 11 11 12 13 15 15 12 12 16 17 18 20 21 22 21 16 13 15 15 14 15 17 17 14 14 15 13 11 10 7 11 9 13 12 3 4 7 10 13 11 2 10 15 16 20 20 18 18 20
2 6 6 7 9 8 8 9 9 11 11 10 10 8 8 9 8 7 8 9 9 10 11 12 11 11 11 9 9 11 11 13 14 9 9 13 11 6 7 9 11 14 13 12 15 15 12 13 15 16 18 19 22 24 22 21 19 15 13 12 14 18 17 17 18 15 13 13 9 9 12 14 12 9 3 6 7 11 11 3 14 12 10 16 20 20 20 20
9 8 7 9 11 11 11 11 10 11 11 11 12 11 10 11 10 9 8 7 8 10 11 11 10 9 10 9 8 10 10 10 11 10 8 8 9 5 6 9 11 14 16 14 15 17 15 13 13 15 17 18 19 22 22 21 19 16 15 14 14 15 17 18 18 15 13 13 8 10 15 13 11 13 7 3 4 7 11 3 10 14 11 13 16 17 21 23
11 12 13 13 12 12 12 12 11 12 12 11 12 12 11 11 10 9 8 8 8 8 9 12 10 8 8 8 9 11 9 5 7 8 6 5 7 7 6 8 10 11 16 16 15 17 19 16 13 14 17 18 18 20 22 23 19 15 12 12 15 14 13 16 17 15 14 13 8 12 13 8 10 17 11 3 8 9 8 9 1 9 11 14 16 18 22 26
10 11 13 14 13 11 10 9 9 11 12 11 11 10 10 11 10 8 7 10 11 8 7 9 9 8 9 9 10 11 10 6 4 4 6 7 8 8 6 7 10 9 12 16 14 16 18 16 14 14 16 17 17 17 21 23 22 19 15 13 14 14 13 14 16 14 15 15 14 16 15 11 10 15 13 7 11 11 4 7 6 3 2 11 16 19 22 24
10 11 11 13 13 12 9 8 9 10 11 11 10 8 7 9 9 7 8 9 11 10 9 9 8 7 8 10 11 9 6 8 9 8 9 10 9 8 8 9 10 7 8 14 15 15 17 15 14 14 14 16 16 16 19 21 20 21 22 20 18 17 14 14 14 14 14 15 15 16 16 13 13 15 16 15 14 10 3 6 6 6 5 5 11 18 20 20
Wind_Direction
280 278 276 275 273 272 271 270 269 267 266 265 264 264 265 267 269 269 266 263 262 261 259 256 255 260 264 255 242 233 234 243 251 253 245 224 203 198 202 198 192 191 193 200 200 197 201 196 195 221 279 274 311 325 303 310 307 285 278 272 269 277 286 286 284 282 288 285 287 287 275 274 271 256 242 216 188 180 181 168 165 165 161 161 165 167 167 169
282 280 278 276 274 273 271 270 268 267 265 264 262 261 260 261 263 264 264 261 259 260 257 255 252 254 259 254 240 231 233 242 249 252 242 216 199 200 200 193 190 193 192 194 197 190 190 189 190 232 272 282 337 326 312 319 314 298 282 275 276 281 284 287 287 283 285 281 281 283 273 272 265 248 237 201 187 177 171 162 157 163 163 158 164 166 169 174
285 282 280 278 275 273 271 270 268 267 265 263 261 259 257 256 257 259 260 258 256 255 255 254 249 249 254 251 238 229 231 243 255 254 239 209 196 201 197 192 190 188 190 191 191 184 178 181 191 236 272 272 326 322 321 328 319 308 292 285 285 290 294 295 294 288 282 279 280 278 272 269 256 240 225 184 177 173 168 164 158 165 165 158 164 165 170 176
287 284 282 279 277 273 271 269 268 267 265 263 261 258 255 253 253 254 255 255 253 251 252 251 247 244 246 246 234 225 227 249 264 253 231 207 195 202 196 194 192 189 196 191 182 182 179 198 208 264 288 282 306 314 330 330 309 304 304 298 298 301 301 301 299 294 282 276 279 278 273 265 246 225 218 194 179 172 166 167 165 165 162 159 163 163 168 172
286 284 282 279 278 275 272 269 267 266 265 263 260 257 254 251 249 249 250 251 250 248 247 248 245 240 240 241 226 215 201 235 260 241 214 207 197 202 198 196 195 196 202 190 184 181 173 207 226 253 281 294 309 310 321 319 297 301 313 307 307 308 307 309 303 296 288 280 279 275 267 252 236 217 212 202 183 174 166 167 169 165 159 158 159 160 163 167
285 283 282 280 278 276 273 270 267 264 263 262 260 257 254 250 247 246 246 248 248 245 244 245 243 236 235 234 218 205 177 196 239 211 193 206 199 203 202 200 199 201 203 191 188 183 174 197 221 249 279 299 309 309 311 309 295 302 319 315 311 311 310 314 308 299 291 285 277 267 260 238 227 219 205 195 180 169 166 168 168 163 156 156 157 158 162 166
287 284 282 280 279 277 274 270 267 263 261 260 258 257 253 249 245 243 243 244 245 243 241 241 241 233 231 227 213 203 188 202 234 204 192 199 199 205 204 205 205 201 202 193 187 190 192 193 220 250 274 304 311 311 311 306 297 304 319 320 310 308 312 313 311 306 293 285 274 259 253 232 219 210 195 188 173 160 161 163 164 159 153 155 156 157 164 166
294 289 284 281 279 278 276 271 268 263 259 257 256 255 253 249 244 241 240 240 243 242 240 238 238 231 227 222 212 204 198 218 235 201 195 193 199 207 207 210 207 200 198 197 188 191 212 209 219 245 266 296 304 307 310 306 303 309 316 321 311 305 314 311 306 305 294 288 276 255 236 223 212 197 190 184 168 157 156 156 160 156 151 154 155 161 165 164
301 297 291 286 281 278 276 273 269 264 259 255 253 252 251 249 243 239 237 237 240 240 238 236 236 230 224 221 211 201 206 223 220 195 199 197 202 208 211 214 207 198 193 199 195 189 213 219 228 255 275 293 298 301 306 304 310 315 313 325 323 308 314 316 308 298 291 291 279 250 223 211 203 189 181 177 166 156 153 152 153 149 150 155 155 161 161 162
305 302 297 292 286 281 277 273 269 264 260 254 251 249 248 247 242 237 234 235 237 237 237 234 235 229 221 218 206 198 217 224 212 200 206 203 207 210 213 212 205 200 192 201 201 192 211 217 234 257 276 295 298 297 301 307 320 323 319 331 330 310 311 319 312 299 292 291 278 233 210 198 193 187 173 169 163 154 150 150 149 145 151 159 160 159 156 164
307 304 300 297 291 284 278 273 269 263 258 254 249 246 245 245 241 237 233 233 234 235 236 233 234 229 221 218 203 199 219 222 210 206 208 207 209 211 213 208 203 200 196 203 205 201 219 225 240 261 281 292 292 296 306 316 325 323 323 330 330 317 312 320 314 304 295 278 268 205 200 193 188 186 171 164 159 152 151 153 153 147 152 163 168 161 159 165
310 304 301 298 294 289 281 274 269 262 257 252 247 244 243 242 239 235 232 231 233 233 233 232 234 230 222 219 209 209 222 220 208 208 209 208 206 203 205 204 200 198 199 206 214 216 225 241 262 277 282 286 293 303 314 325 322 320 320 318 327 325 309 320 315 304 298 260 220 176 189 185 180 177 168 161 155 153 153 156 156 148 153 166 168 162 160 160
312 305 299 296 294 291 284 275 268 262 256 251 245 241 240 240 238 234 231 230 231 232 232 232 232 231 224 219 213 215 224 222 207 208 208 202 200 197 195 199 197 196 198 198 217 238 240 262 286 283 275 283 296 308 321 331 326 325 326 320 333 333 312 320 315 298 291 211 171 164 170 173 172 166 163 155 150 154 155 157 158 151 157 168 165 162 160 157
314 306 299 293 290 288 285 276 267 261 255 250 244 238 236 237 236 234 231 229 230 231 231 231 230 232 225 217 219 217 219 221 207 206 206 198 197 196 192 196 197 197 198 190 204 234 244 259 277 276 275 287 302 312 315 322 324 327 335 340 342 336 327 327 323 306 226 146 165 180 160 166 163 160 163 154 147 153 156 156 154 152 159 169 166 160 157 159
317 309 301 293 288 284 282 277 268 260 253 249 243 237 233 233 233 233 231 228 229 230 230 231 229 233 227 222 232 225 217 218 209 204 203 195 195 195 194 197 199 202 202 197 207 227 242 244 255 268 276 290 306 309 307 316 323 323 333 346 339 330 332 331 335 117 148 112 146 184 151 157 155 155 160 155 150 150 154 153 147 151 160 169 165 158 161 167
320 312 305 297 290 284 279 274 268 258 251 246 241 236 232 230 229 231 231 228 227 228 229 230 228 231 227 222 231 227 215 214 209 204 201 192 191 194 196 199 201 206 205 208 216 221 242 250 255 267 277 287 295 294 302 316 317 323 333 336 337 328 333 338 347 135 139 70 37 161 147 150 151 152 152 150 152 148 151 150 147 155 162 170 165 161 168 168
322 316 311 304 297 288 278 270 265 258 250 244 239 234 230 227 226 227 230 227 226 228 228 229 229 229 226 226 230 224 212 213 209 203 200 190 187 192 198 200 201 209 210 215 228 231 242 258 264 269 276 281 284 284 295 305 303 336 340 327 337 324 327 348 122 139 108 62 55 139 145 148 150 154 152 153 157 150 152 151 152 161 167 176 168 167 171 165
325 320 315 309 302 290 279 268 262 258 251 244 238 233 228 226 225 226 228 226 224 224 227 229 224 224 241 245 239 230 215 214 210 202 200 194 188 190 197 201 202 209 216 224 239 245 241 251 260 264 270 274 285 286 287 293 298 333 334 327 336 314 321 357 153 133 104 92 99 128 139 149 155 160 158 161 164 155 156 155 157 164 173 179 167 173 173 162
328 325 318 312 304 292 280 270 262 259 255 244 235 229 225 225 224 225 227 227 222 214 224 243 224 205 279 276 242 229 217 212 211 204 203 199 192 191 194 198 204 207 215 230 240 247 242 241 250 255 263 267 276 281 283 298 304 314 327 330 331 309 331 24 154 143 123 115 117 129 138 149 156 170 170 167 167 159 158 160 162 168 178 177 165 177 175 163
334 331 325 319 311 299 285 273 264 261 255 242 231 218 213 217 224 241 237 230 223 205 188 236 213 188 305 293 187 190 206 210 210 206 206 203 195 194 195 195 203 214 216 227 236 239 237 238 247 250 258 266 271 277 281 295 295 287 310 329 329 297 320 36 150 160 151 141 137 137 139 150 162 189 179 170 174 168 163 164 168 174 178 172 168 179 173 167
339 337 334 329 320 312 297 279 267 261 252 237 223 204 197 185 178 229 238 228 222 209 201 198 185 176 180 217 201 198 206 213 210 208 210 204 194 194 199 198 201 220 223 225 236 237 234 242 250 249 260 276 275 275 282 287 292 305 315 326 339 301 303 17 163 178 166 173 179 169 156 161 176 184 172 173 183 178 171 166 169 178 177 171 173 179 170 169
342 341 341 337 329 324 310 284 269 263 250 233 212 202 205 195 187 204 219 218 217 211 210 201 185 193 186 181 217 215 207 213 207 208 211 200 196 196 202 207 207 223 227 225 236 237 236 245 256 254 261 276 268 264 280 286 294 321 321 316 328 302 292 29 157 177 180 190 179 180 190 182 184 175 169 172 176 180 180 172 173 181 178 173 177 181 173 171
343 342 343 340 335 329 313 290 277 268 250 228 207 204 208 203 198 202 208 210 216 216 213 205 191 201 202 184 208 204 192 207 205 208 211 199 196 194 200 215 216 225 231 226 231 236 239 244 254 256 256 268 269 263 274 289 290 299 303 298 304 281 243 208 164 176 197 207 183 188 198 187 180 182 181 177 171 179 187 179 178 182 181 177 179 184 177 175
342 343 343 342 339 327 310 298 287 274 248 217 204 205 203 198 197 203 211 199 210 232 225 216 202 202 210 204 214 200 185 203 207 210 214 203 194 193 199 217 222 228 235 233 233 240 245 248 257 270 269 267 275 275 270 289 294 289 290 278 285 279 226 211 189 176 185 204 210 200 200 203 194 190 193 196 190 186 188 185 181 182 184 179 181 188 181 181
342 343 344 345 342 324 312 310 300 274 224 195 187 186 187 190 190 193 202 192 203 222 223 221 211 207 209 209 221 208 185 203 209 212 218 207 194 197 204 216 226 231 235 239 241 246 250 255 260 267 275 267 270 273 261 273 281 286 293 252 277 297 195 170 205 173 165 207 222 197 200 223 211 200 194 203 209 195 190 192 183 180 187 183 181 191 187 186
341 344 346 347 344 326 324 342 313 193 163 171 173 172 173 177 183 183 180 197 208 198 201 212 212 211 206 206 214 198 193 218 209 210 223 214 196 199 210 218 227 233 237 242 246 251 253 255 258 255 259 260 263 265 254 263 264 273 286 236 287 301 175 177 264 187 157 216 215 193 198 252 218 203 197 203 210 199 192 196 190 183 185 187 186 193 196 191
342 343 346 350 347 333 339 23 135 165 158 160 160 162 164 164 173 172 170 217 213 191 194 199 206 213 204 212 212 183 190 222 202 204 222 216 200 201 216 220 226 235 240 247 250 251 249 249 252 252 256 260 262 264 261 263 258 268 279 256 285 289 241 277 244 180 126 33 196 195 193 248 240 209 200 202 205 201 197 195 192 187 181 184 192 196 200 195
343 344 347 352 348 342 356 75 108 152 164 157 152 153 155 161 166 164 179 251 180 176 197 196 201 205 189 206 210 187 186 202 191 200 212 214 204 201 219 224 227 238 236 241 248 251 250 247 246 249 255 255 257 263 260 255 257 269 274 261 281 286 279 280 178 151 67 284 203 208 199 215 257 220 203 203 204 202 204 201 197 194 184 181 191 199 200 197
345 344 348 355 352 352 15 118 130 143 149 146 149 147 149 159 159 160 217 276 151 168 202 201 205 199 179 191 205 197 202 198 195 204 208 215 206 198 217 228 231 246 245 240 246 251 254 251 248 253 255 249 254 261 251 247 258 269 272 272 281 280 276 269 149 136 321 221 217 224 208 205 245 239 214 205 208 203 205 209 203 199 190 182 191 199 199 197
348 346 349 0 3 3 35 135 145 143 140 141 145 145 151 159 160 181 236 207 157 173 195 202 206 196 183 190 201 200 205 206 202 199 198 210 208 201 214 229 233 248 254 248 247 250 253 254 255 263 265 257 259 266 258 253 260 264 269 276 279 281 280 270 197 271 256 205 226 221 210 207 233 244 220 210 213 203 200 208 205 199 193 187 192 199 197 194
350 349 354 7 16 27 68 130 142 141 140 141 142 146 154 155 165 230 240 145 153 169 187 201 197 190 189 192 198 198 201 205 198 186 190 200 206 205 213 227 230 240 252 253 251 250 249 249 249 254 260 259 257 261 263 259 261 261 265 275 279 289 296 290 324 351 296 279 248 206 198 200 214 253 239 220 216 203 199 206 205 201 196 191 191 195 196 193
354 355 1 16 29 50 99 126 138 140 141 142 144 147 148 159 203 231 214 173 192 170 182 197 185 187 192 192 200 197 198 206 201 195 197 199 202 206 212 219 219 226 239 244 247 248 246 242 241 246 248 246 249 253 255 255 256 255 256 266 273 291 339 328 349 17 271 291 290 194 180 199 236 255 250 224 214 202 200 206 209 206 198 195 194 191 193 193
1 1 6 27 39 73 120 129 141 146 145 146 147 145 139 220 233 220 179 147 138 144 174 186 179 186 189 192 203 197 197 207 202 201 206 204 207 210 213 218 218 224 233 239 243 244 244 237 231 236 239 238 240 243 246 247 248 250 253 259 264 280 46 267 282 312 264 285 315 264 182 225 275 253 213 214 209 199 200 205 213 213 205 203 201 191 188 192
6 6 15 44 52 95 130 137 147 150 151 151 146 144 191 251 244 239 162 88 77 109 156 170 173 186 191 197 204 194 197 208 203 203 208 208 213 214 215 219 221 227 236 249 253 248 250 244 224 224 232 234 232 235 243 249 257 269 271 266 269 287 55 284 280 303 328 309 318 341 167 273 294 265 215 196 189 191 198 203 211 216 214 216 211 195 185 187
10 16 31 55 63 105 135 147 151 155 159 153 145 161 252 249 294 339 111 120 102 133 146 161 173 185 192 201 208 198 199 209 204 205 211 212 215 218 217 217 219 223 231 240 247 249 255 260 243 231 228 229 227 230 239 247 261 271 269 266 277 198 180 214 262 270 318 328 313 343 320 259 274 293 1 169 178 187 201 207 206 202 208 216 212 198 187 183
17 24 47 70 80 104 138 158 157 164 165 153 156 267 255 265 344 21 66 88 55 112 139 172 184 191 192 196 210 203 202 213 207 204 215 219 220 222 221 220 217 217 223 230 236 243 251 262 257 230 211 223 233 231 229 230 244 254 252 267 281 200 201 197 239 277 291 314 308 341 319 271 269 246 147 140 156 172 195 205 197 186 197 208 204 199 192 184
26 34 59 63 68 100 135 167 164 172 172 160 271 283 267 281 348 37 38 42 10 139 185 200 188 195 195 193 208 202 198 216 210 205 219 219 220 225 221 222 220 213 217 226 235 250 260 269 267 231 212 230 235 233 231 224 233 243 243 281 314 284 258 226 184 248 262 278 328 352 333 297 291 253 159 137 142 157 179 192 187 185 193 198 195 195 192 183
29 56 52 42 34 95 143 170 173 180 180 177 259 283 316 320 341 355 314 277 235 229 250 249 209 206 204 195 203 193 192 210 205 206 224 220 219 223 217 220 222 214 215 221 233 251 256 264 271 237 216 228 220 225 242 227 225 239 248 271 287 260 265 255 188 222 271 52 6 320 286 265 253 216 157 150 150 155 169 179 182 188 190 187 185 186 186 184
11 40 30 19 9 40 153 168 178 186 187 206 264 286 315 315 314 317 289 243 233 236 254 271 245 216 212 206 200 185 190 207 204 205 222 221 217 214 211 218 218 211 211 215 226 241 245 260 276 232 192 223 217 213 237 234 214 224 243 254 245 227 243 287 312 264 242 102 73 295 288 229 159 129 83 133 144 149 166 172 174 185 188 180 180 181 185 186
21 42 334 331 349 4 167 171 181 190 195 217 269 302 313 298 312 311 256 239 239 245 270 293 286 234 225 232 219 191 192 208 210 210 218 218 212 203 205 215 217 210 207 210 218 227 236 252 263 238 188 229 225 206 222 234 211 206 225 237 240 238 226 238 282 164 127 88 81 232 287 27 72 25 22 100 153 152 161 166 172 183 183 172 177 180 185 184
37 56 262 294 334 340 176 166 177 192 210 231 262 297 300 275 285 295 260 256 247 251 281 297 304 314 279 251 242 198 191 206 215 215 221 218 209 208 206 208 216 212 201 206 214 217 226 242 252 244 213 205 219 210 217 231 224 215 219 226 234 243 225 192 269 152 123 114 253 263 297 30 46 5 10 55 171 164 155 162 171 175 175 172 177 184 187 181
42 29 266 287 312 298 158 159 197 212 232 245 263 290 301 283 266 267 268 259 243 248 271 274 284 302 279 263 289 248 197 204 218 215 220 221 212 221 214 197 210 215 201 207 213 212 221 238 257 256 246 247 236 209 207 224 231 232 226 229 237 244 229 165 216 176 115 135 264 320 313 220 21 4 15 49 59 156 149 157 172 172 173 175 177 185 187 179
43 334 285 294 290 246 164 188 241 242 241 252 271 283 289 284 262 254 252 241 230 232 250 257 262 277 273 268 290 284 202 195 215 217 218 219 217 227 210 186 202 214 208 210 211 208 215 229 254 265 266 282 283 231 209 217 226 231 218 210 226 238 233 205 229 182 139 166 208 359 318 249 23 19 20 42 36 140 154 159 175 172 170 175 179 185 184 180
113 264 290 306 287 218 193 207 253 271 255 257 273 276 272 270 255 242 241 243 239 234 241 250 248 257 268 262 273 291 243 197 209 219 221 213 212 219 196 181 199 209 211 213 205 202 206 216 237 256 264 280 286 266 234 212 215 239 232 208 211 224 223 206 209 206 183 181 170 103 295 265 6 19 354 25 42 36 163 149 165 169 169 181 193 192 190 190
116 145 275 289 296 248 214 219 268 290 275 267 279 282 271 262 249 241 243 247 246 245 251 256 251 246 250 256 261 278 282 248 216 218 227 221 213 206 184 181 203 208 211 218 209 201 204 208 217 231 248 247 228 248 246 206 196 236 250 238 226 213 203 206 213 212 205 172 158 163 230 262 256 348 350 35 44 6 352 76 152 168 170 185 199 191 185 192
104 53 268 276 297 282 239 239 270 277 277 283 286 284 271 258 248 242 242 242 242 247 254 258 266 255 243 254 260 258 262 259 237 227 233 232 218 197 179 184 206 210 211 218 219 207 208 217 215 220 237 245 243 256 264 206 197 218 230 231 234 226 202 204 224 221 215 218 180 168 190 243 238 354 30 12 2 358 348 358 128 157 172 189 198 187 180 186
106 7 308 271 271 263 254 260 266 265 269 283 287 285 275 260 251 244 241 242 243 248 254 253 256 255 247 250 252 248 247 240 234 238 233 229 219 190 178 185 201 214 216 215 221 222 220 227 225 223 232 244 256 265 272 263 244 233 222 214 221 230 221 211 221 221 221 235 200 162 192 238 233 204 22 340 340 352 351 12 139 149 181 196 191 187 187 182
213 319 308 273 251 242 261 266 266 269 269 277 282 280 277 268 258 248 246 251 247 242 247 249 247 247 248 250 246 246 249 233 223 230 232 228 225 197 184 198 207 220 224 215 217 225 236 238 231 231 234 239 250 257 265 273 267 253 250 241 223 223 225 224 225 223 228 239 228 189 210 241 238 224 281 330 328 348 1 140 164 162 181 189 181 182 189 185
230 236 227 246 240 232 253 265 271 277 274 276 278 271 267 266 261 254 254 258 249 238 240 246 248 245 240 248 256 249 250 248 242 253 264 245 234 229 224 223 220 218 217 219 218 219 235 249 239 238 243 240 243 247 250 259 266 264 257 254 246 232 224 228 232 229 231 243 244 197 200 221 220 204 213 301 289 327 4 45 179 177 180 195 193 187 191 192
235 231 224 235 234 229 251 268 273 276 274 273 273 268 261 255 256 259 254 248 250 247 239 239 252 267 255 251 256 241 233 263 284 268 267 274 261 257 252 240 237 222 209 216 223 216 226 243 245 246 253 247 241 241 240 243 255 267 254 236 246 249 235 230 231 228 231 237 214 175 190 233 218 189 182 251 274 285 353 20 112 181 194 213 203 188 191 193
247 244 239 244 243 234 246 269 273 271 272 266 262 264 257 248 254 266 255 246 249 256 251 244 254 273 270 259 253 242 231 242 280 262 246 265 273 277 282 254 247 240 210 211 222 216 217 234 242 243 253 254 244 236 236 238 244 251 249 240 242 246 244 238 228 219 222 225 206 192 209 248 235 198 183 203 250 262 319 5 10 60 219 233 207 188 194 202
251 251 253 254 250 237 240 270 271 264 267 264 258 264 257 247 256 271 275 261 248 247 255 258 265 274 273 264 249 239 236 234 239 249 255 257 262 271 267 233 228 252 234 215 220 217 215 229 240 238 244 251 249 238 230 231 236 238 238 240 243 242 241 240 236 230 225 223 223 219 217 222 223 214 200 201 222 235 268 311 327 46 40 270 217 196 201 210
Height
3137 3137 3136 3136 3136 3136 3135 3135 3135 3135 3135 3135 3136 3136 3136 3136 3136 3135 3135 3135 3134 3134 3134 3134 3134 3134 3134 3134 3134 3134 3134 3135 3134 3134 3135 3135 3136 3136 3137 3138 3139 3140 3140 3141 3142 3142 3142 3142 3142 3142 3143 3142 3142 3142 3141 3141 3140 3139 3139 3139 3137 3137 3137 3136 3135 3135 3134 3134 3133 3133 3133 3133 3134 3134 3134 3136 3136 3137 3137 3138 3139 3141 3144 3146 3149 3151 3153 3154
3136 3135 3134 3134 3134 3134 3133 3133 3133 3133 3133 3133 3134 3134 3134 3134 3134 3134 3134 3134 3133 3133 3133 3133 3133 3133 3133 3133 3133 3133 3134 3134 3134 3134 3134 3135 3135 3136 3137 3138 3139 3140 3140 3141 3142 3142 3142 3142 3143 3143 3143 3143 3142 3142 3142 3142 3141 3140 3139 3138 3137 3137 3136 3135 3134 3134 3133 3133 3133 3132 3132 3132 3132 3132 3134 3135 3136 3136 3136 3136 3138 3140 3143 3146 3148 3151 3152 3154
3134 3133 3133 3132 3132 3132 3131 3131 3131 3131 3131 3132 3132 3132 3133 3133 3133 3133 3133 3133 3132 3132 3132 3132 3132 3132 3133 3132 3132 3133 3133 3134 3134 3134 3134 3135 3135 3136 3137 3138 3139 3140 3141 3141 3142 3142 3142 3143 3143 3144 3144 3143 3143 3143 3142 3142 3141 3140 3139 3137 3137 3137 3135 3135 3133 3132 3132 3131 3132 3131 3131 3131 3131 3131 3133 3134 3134 3135 3135 3135 3137 3139 3142 3145 3148 3150 3152 3153
3132 3131 3131 3130 3130 3129 3129 3129 3129 3129 3129 3129 3130 3130 3131 3131 3131 3132 3132 3131 3131 3131 3131 3131 3131 3132 3132 3132 3132 3133 3133 3134 3133 3133 3134 3135 3135 3136 3137 3138 3139 3140 3140 3141 3142 3142 3143 3143 3144 3144 3144 3144 3143 3143 3142 3141 3140 3139 3138 3137 3137 3136 3134 3134 3133 3131 3131 3130 3130 3130 3130 3129 3129 3131 3131 3132 3133 3134 3135 3137 3138 3139 3142 3145 3147 3150 3151 3153
3130 3130 3129 3128 3128 3127 3127 3127 3127 3127 3127 3127 3128 3128 3129 3129 3130 3130 3130 3130 3130 3130 3130 3130 3130 3131 3131 3131 3132 3132 3134 3134 3132 3133 3134 3134 3135 3136 3137 3138 3139 3140 3140 3141 3142 3142 3143 3144 3145 3144 3143 3143 3143 3143 3142 3141 3140 3138 3138 3137 3136 3135 3134 3133 3132 3131 3130 3129 3129 3128 3128 3128 3128 3129 3130 3131 3132 3133 3135 3137 3139 3141 3143 3145 3147 3149 3151 3153
3128 3128 3127 3126 3126 3125 3125 3125 3125 3125 3125 3125 3126 3126 3127 3127 3128 3128 3129 3128 3128 3128 3129 3129 3129 3130 3130 3130 3131 3132 3133 3132 3130 3132 3133 3134 3135 3135 3136 3138 3138 3139 3140 3141 3142 3142 3144 3145 3145 3144 3143 3143 3143 3142 3141 3141 3139 3138 3137 3137 3136 3135 3134 3133 3131 3130 3129 3128 3127 3126 3125 3126 3126 3128 3129 3130 3131 3133 3135 3137 3140 3142 3143 3145 3147 3149 3152 3154
3126 3125 3125 3124 3124 3123 3123 3123 3123 3123 3123 3123 3124 3124 3125 3125 3126 3126 3127 3127 3127 3127 3127 3128 3128 3129 3129 3130 3130 3131 3131 3130 3130 3132 3133 3133 3135 3135 3136 3137 3138 3139 3140 3141 3142 3143 3144 3145 3145 3144 3143 3142 3142 3141 3141 3141 3140 3138 3137 3137 3136 3135 3134 3132 3131 3128 3128 3126 3126 3125 3124 3125 3125 3126 3128 3129 3130 3133 3136 3138 3140 3142 3143 3145 3147 3150 3152 3154
3124 3123 3122 3122 3122 3121 3121 3121 3121 3121 3121 3121 3122 3122 3123 3123 3124 3125 3125 3125 3125 3125 3126 3127 3127 3128 3128 3129 3129 3130 3131 3130 3130 3131 3132 3133 3134 3135 3135 3136 3138 3139 3140 3141 3142 3144 3145 3145 3146 3145 3144 3142 3141 3141 3141 3141 3141 3139 3138 3138 3136 3135 3133 3132 3129 3127 3126 3125 3124 3124 3123 3124 3124 3125 3127 3129 3130 3132 3136 3138 3140 3141 3143 3145 3148 3150 3152 3155
3122 3121 3120 3120 3119 3119 3118 3118 3119 3119 3119 3119 3120 3120 3121 3121 3122 3123 3123 3124 3124 3124 3125 3125 3126 3127 3127 3128 3128 3130 3130 3129 3130 3131 3132 3133 3133 3134 3135 3136 3138 3139 3140 3142 3142 3144 3145 3146 3146 3145 3144 3143 3141 3142 3141 3141 3141 3140 3139 3139 3137 3134 3133 3131 3128 3126 3125 3124 3123 3122 3122 3123 3123 3125 3127 3129 3130 3133 3135 3139 3140 3141 3143 3146 3148 3150 3152 3155
3120 3119 3118 3117 3117 3116 3116 3116 3116 3117 3117 3117 3118 3118 3119 3119 3120 3121 3121 3122 3122 3122 3123 3124 3125 3125 3126 3127 3128 3129 3128 3127 3129 3130 3131 3132 3133 3133 3135 3136 3138 3139 3140 3141 3142 3143 3144 3146 3147 3145 3144 3143 3142 3142 3141 3141 3141 3140 3140 3139 3136 3133 3131 3130 3127 3125 3124 3123 3122 3121 3121 3122 3123 3125 3126 3128 3131 3133 3135 3139 3141 3142 3145 3148 3149 3151 3153 3155
3119 3118 3116 3115 3115 3114 3114 3114 3114 3114 3115 3115 3115 3116 3117 3117 3118 3119 3119 3120 3120 3121 3122 3123 3123 3124 3125 3125 3126 3126 3124 3126 3128 3129 3130 3131 3132 3133 3135 3136 3138 3139 3140 3141 3142 3143 3144 3145 3147 3145 3144 3143 3142 3142 3142 3142 3141 3140 3139 3136 3134 3132 3130 3129 3127 3124 3123 3123 3121 3120 3121 3121 3123 3125 3126 3128 3131 3134 3136 3139 3141 3143 3147 3149 3150 3152 3154 3156
3117 3116 3115 3114 3113 3112 3112 3111 3112 3112 3112 3113 3113 3114 3115 3115 3116 3117 3118 3118 3119 3119 3120 3122 3122 3123 3123 3124 3125 3124 3123 3126 3128 3129 3130 3130 3132 3133 3134 3136 3138 3139 3140 3141 3142 3143 3145 3146 3147 3146 3144 3143 3143 3143 3143 3143 3141 3139 3137 3135 3134 3133 3130 3129 3126 3124 3123 3123 3121 3120 3121 3121 3123 3125 3126 3128 3131 3134 3137 3140 3141 3143 3148 3150 3150 3152 3154 3156
3116 3114 3113 3112 3111 3110 3109 3109 3109 3110 3110 3110 3111 3112 3113 3114 3114 3115 3116 3116 3117 3118 3119 3120 3121 3122 3122 3123 3124 3123 3123 3125 3127 3128 3129 3130 3131 3132 3134 3136 3137 3138 3139 3141 3143 3144 3145 3147 3146 3146 3146 3143 3142 3142 3143 3142 3141 3139 3136 3134 3133 3131 3129 3129 3127 3124 3123 3123 3122 3121 3122 3122 3123 3125 3127 3128 3131 3134 3137 3140 3142 3144 3148 3150 3151 3152 3154 3157
3114 3112 3111 3109 3109 3108 3107 3107 3107 3107 3108 3108 3109 3110 3111 3112 3113 3114 3114 3115 3116 3117 3118 3119 3120 3120 3121 3122 3121 3120 3123 3125 3127 3128 3129 3130 3131 3132 3134 3135 3137 3138 3139 3141 3144 3146 3147 3148 3148 3147 3146 3144 3142 3142 3141 3140 3139 3138 3136 3134 3133 3130 3128 3128 3127 3125 3124 3123 3122 3121 3122 3123 3124 3126 3127 3130 3133 3135 3138 3140 3142 3145 3148 3150 3151 3152 3154 3158
3112 3110 3108 3107 3106 3106 3105 3105 3105 3105 3106 3106 3107 3108 3109 3110 3111 3112 3112 3113 3114 3115 3116 3117 3119 3119 3120 3122 3120 3121 3124 3125 3126 3128 3128 3130 3131 3132 3134 3135 3136 3138 3139 3141 3143 3145 3147 3148 3148 3147 3146 3145 3143 3141 3139 3138 3137 3137 3136 3135 3133 3131 3129 3128 3127 3126 3125 3124 3123 3122 3122 3123 3125 3126 3129 3132 3134 3136 3139 3141 3143 3146 3149 3150 3151 3153 3156 3159
3110 3108 3106 3105 3104 3104 3103 3103 3103 3103 3103 3104 3105 3106 3107 3108 3110 3111 3111 3112 3113 3114 3115 3117 3118 3118 3120 3120 3119 3120 3123 3124 3126 3127 3128 3129 3131 3132 3133 3135 3136 3138 3139 3141 3142 3144 3145 3146 3146 3146 3145 3145 3144 3141 3139 3138 3137 3137 3137 3137 3135 3133 3131 3129 3128 3127 3126 3126 3124 3124 3124 3125 3127 3129 3132 3134 3136 3137 3140 3142 3143 3147 3150 3150 3151 3153 3156 3158
3108 3106 3105 3103 3102 3101 3101 3101 3100 3101 3101 3102 3103 3104 3105 3107 3108 3109 3110 3111 3112 3113 3114 3116 3117 3118 3118 3118 3117 3120 3122 3124 3125 3126 3128 3129 3130 3132 3133 3135 3136 3137 3139 3141 3142 3143 3144 3145 3145 3145 3144 3144 3143 3141 3141 3139 3138 3138 3137 3137 3135 3133 3132 3130 3128 3127 3127 3127 3126 3126 3127 3128 3130 3132 3133 3135 3137 3138 3140 3142 3144 3147 3151 3150 3151 3154 3155 3157
3107 3105 3103 3101 3100 3100 3099 3099 3099 3099 3099 3100 3102 3103 3104 3105 3107 3108 3109 3110 3111 3112 3114 3115 3116 3118 3118 3117 3119 3121 3122 3123 3124 3126 3127 3128 3130 3131 3133 3135 3136 3138 3139 3141 3142 3142 3143 3144 3144 3145 3144 3143 3142 3141 3141 3139 3139 3139 3138 3137 3135 3133 3132 3130 3129 3128 3128 3128 3128 3129 3129 3131 3133 3134 3135 3136 3138 3139 3140 3142 3144 3148 3150 3149 3151 3153 3154 3157
3105 3104 3102 3100 3099 3098 3098 3097 3097 3097 3098 3099 3100 3101 3103 3104 3105 3107 3108 3108 3109 3112 3114 3114 3115 3118 3118 3117 3119 3122 3121 3121 3123 3125 3127 3128 3129 3131 3133 3135 3136 3138 3140 3141 3141 3142 3143 3143 3144 3143 3143 3142 3141 3141 3140 3139 3139 3140 3140 3138 3136 3134 3133 3130 3129 3129 3129 3128 3129 3131 3132 3134 3136 3136 3137 3137 3138 3139 3140 3142 3145 3149 3150 3149 3152 3153 3154 3157
3104 3102 3101 3099 3098 3097 3096 3096 3096 3096 3097 3098 3099 3100 3102 3104 3106 3107 3107 3107 3109 3111 3112 3112 3114 3117 3119 3120 3120 3120 3119 3120 3123 3125 3126 3128 3129 3131 3133 3135 3137 3138 3139 3141 3141 3142 3142 3143 3142 3141 3141 3140 3140 3140 3139 3139 3140 3139 3140 3139 3136 3136 3134 3133 3131 3129 3130 3130 3130 3132 3134 3136 3138 3139 3139 3139 3139 3140 3141 3141 3144 3149 3149 3150 3152 3153 3154 3157
3104 3102 3100 3098 3096 3096 3095 3095 3094 3095 3095 3096 3097 3099 3099 3101 3104 3104 3104 3106 3108 3109 3110 3111 3114 3117 3119 3121 3119 3118 3119 3121 3123 3125 3125 3127 3129 3131 3133 3134 3137 3138 3138 3140 3141 3142 3141 3141 3140 3140 3140 3138 3138 3139 3138 3140 3141 3139 3139 3138 3136 3137 3135 3134 3133 3131 3131 3131 3131 3132 3134 3136 3138 3139 3141 3140 3140 3141 3142 3142 3145 3148 3149 3151 3153 3153 3154 3157
3103 3101 3099 3097 3096 3094 3094 3093 3093 3093 3094 3095 3096 3097 3097 3099 3100 3101 3102 3105 3106 3107 3109 3110 3113 3115 3118 3119 3117 3118 3120 3122 3123 3124 3125 3127 3129 3131 3133 3134 3136 3137 3138 3140 3140 3141 3140 3139 3139 3138 3138 3137 3137 3138 3138 3140 3140 3139 3139 3138 3136 3137 3136 3134 3133 3132 3132 3132 3132 3133 3134 3136 3136 3138 3140 3140 3140 3142 3143 3144 3145 3148 3150 3151 3153 3152 3153 3156
3102 3100 3098 3096 3095 3094 3092 3092 3092 3092 3093 3093 3094 3095 3097 3099 3100 3101 3103 3104 3105 3106 3108 3109 3111 3114 3116 3116 3116 3117 3120 3122 3123 3123 3124 3126 3128 3131 3133 3134 3135 3137 3137 3139 3139 3139 3138 3137 3137 3137 3137 3137 3137 3137 3137 3138 3137 3137 3138 3137 3136 3136 3135 3133 3132 3133 3133 3132 3133 3134 3135 3137 3137 3137 3139 3140 3142 3142 3144 3145 3146 3149 3150 3151 3153 3152 3153 3155
3102 3100 3098 3096 3094 3093 3092 3091 3091 3091 3092 3092 3094 3095 3097 3099 3100 3103 3104 3104 3106 3106 3107 3108 3111 3113 3115 3116 3117 3117 3120 3122 3124 3123 3123 3125 3128 3130 3133 3134 3135 3135 3136 3137 3137 3137 3136 3135 3136 3136 3136 3137 3136 3136 3136 3136 3135 3136 3136 3135 3134 3134 3133 3133 3132 3132 3132 3132 3132 3133 3135 3136 3137 3138 3138 3139 3142 3143 3145 3146 3146 3149 3151 3152 3153 3153 3153 3155
3101 3099 3097 3095 3094 3092 3091 3091 3091 3091 3091 3092 3093 3095 3098 3099 3101 3103 3104 3105 3106 3106 3107 3108 3110 3112 3114 3115 3116 3117 3120 3121 3123 3124 3122 3124 3128 3130 3132 3134 3134 3134 3134 3135 3136 3135 3134 3135 3135 3135 3136 3136 3136 3136 3136 3135 3135 3135 3134 3133 3133 3132 3132 3134 3134 3132 3132 3132 3132 3133 3134 3134 3134 3136 3138 3139 3140 3142 3144 3145 3145 3147 3150 3151 3152 3152 3153 3154
3101 3099 3097 3095 3093 3092 3091 3091 3091 3091 3091 3093 3094 3095 3097 3100 3102 3104 3105 3106 3106 3105 3106 3107 3109 3110 3112 3114 3114 3117 3120 3120 3122 3123 3121 3124 3128 3130 3132 3133 3133 3133 3134 3135 3134 3133 3133 3134 3134 3134 3135 3135 3135 3135 3135 3135 3134 3133 3132 3132 3132 3132 3131 3132 3133 3133 3132 3132 3131 3132 3133 3134 3133 3134 3136 3138 3139 3141 3142 3144 3144 3145 3147 3150 3152 3152 3152 3154
3101 3099 3097 3095 3093 3092 3092 3091 3091 3091 3092 3093 3094 3096 3098 3100 3103 3104 3106 3106 3103 3103 3105 3106 3108 3109 3111 3113 3113 3117 3120 3119 3121 3122 3120 3123 3127 3129 3130 3131 3132 3132 3132 3134 3132 3131 3131 3132 3132 3133 3133 3133 3133 3133 3133 3134 3133 3132 3131 3132 3132 3131 3129 3127 3129 3133 3134 3133 3132 3131 3132 3134 3133 3132 3134 3136 3137 3139 3140 3141 3142 3143 3145 3148 3151 3151 3151 3153
3101 3099 3097 3095 3094 3093 3092 3092 3092 3092 3093 3093 3094 3096 3099 3101 3103 3104 3106 3104 3100 3102 3104 3105 3107 3108 3111 3113 3113 3116 3118 3118 3120 3120 3120 3122 3125 3128 3128 3129 3130 3131 3132 3133 3130 3129 3130 3130 3131 3131 3132 3132 3132 3132 3132 3132 3132 3131 3130 3131 3131 3130 3129 3127 3129 3132 3133 3133 3132 3131 3131 3132 3131 3131 3132 3134 3136 3137 3137 3137 3139 3142 3143 3145 3149 3150 3150 3152
3100 3099 3097 3095 3094 3093 3093 3092 3092 3093 3094 3095 3096 3097 3099 3102 3103 3105 3106 3103 3099 3101 3103 3104 3106 3108 3110 3112 3112 3115 3117 3118 3119 3118 3119 3121 3123 3126 3127 3128 3129 3129 3130 3131 3129 3128 3129 3129 3129 3130 3130 3130 3130 3130 3131 3130 3130 3130 3130 3130 3129 3128 3128 3128 3128 3129 3130 3131 3131 3130 3130 3130 3129 3127 3129 3131 3131 3133 3134 3135 3137 3139 3141 3142 3147 3149 3150 3152
3100 3099 3097 3096 3094 3094 3093 3093 3093 3094 3095 3096 3097 3099 3100 3102 3104 3106 3105 3102 3099 3100 3102 3103 3105 3107 3109 3111 3112 3114 3115 3118 3119 3117 3118 3121 3122 3124 3126 3128 3129 3128 3128 3128 3127 3127 3128 3128 3129 3128 3128 3129 3129 3129 3129 3129 3129 3129 3129 3128 3127 3127 3126 3127 3127 3127 3128 3129 3127 3125 3126 3127 3126 3123 3123 3124 3123 3126 3130 3132 3133 3136 3138 3140 3144 3147 3148 3151
3100 3099 3098 3096 3095 3095 3094 3094 3094 3095 3096 3097 3098 3100 3101 3103 3105 3105 3102 3099 3099 3100 3101 3102 3104 3106 3108 3110 3112 3113 3115 3117 3118 3118 3119 3120 3122 3123 3124 3126 3127 3127 3127 3126 3126 3126 3126 3127 3127 3127 3128 3128 3128 3128 3128 3128 3128 3128 3128 3127 3126 3125 3125 3126 3125 3126 3128 3126 3122 3121 3122 3125 3125 3120 3117 3118 3119 3125 3127 3127 3128 3132 3135 3138 3142 3145 3147 3149
3101 3099 3098 3097 3096 3095 3095 3095 3096 3096 3097 3098 3099 3101 3102 3105 3105 3102 3098 3097 3098 3099 3100 3102 3104 3105 3107 3109 3111 3112 3114 3116 3116 3117 3118 3119 3120 3121 3122 3123 3124 3125 3125 3124 3124 3124 3123 3124 3125 3126 3127 3127 3127 3127 3127 3127 3127 3127 3126 3126 3125 3123 3128 3133 3129 3126 3127 3124 3121 3122 3123 3125 3122 3115 3114 3116 3118 3122 3124 3124 3126 3129 3133 3136 3139 3143 3146 3148
3101 3100 3099 3097 3097 3097 3096 3097 3097 3098 3098 3099 3100 3101 3104 3105 3102 3098 3097 3097 3096 3097 3100 3101 3103 3105 3107 3109 3110 3111 3113 3114 3115 3116 3117 3118 3119 3119 3120 3121 3123 3124 3123 3122 3122 3121 3120 3120 3122 3124 3124 3124 3125 3124 3124 3124 3124 3124 3124 3123 3123 3122 3132 3141 3134 3125 3124 3123 3122 3123 3125 3124 3118 3111 3113 3115 3115 3118 3122 3124 3126 3128 3131 3134 3137 3141 3144 3147
3102 3100 3099 3098 3098 3098 3098 3098 3099 3099 3099 3100 3101 3103 3105 3104 3100 3096 3096 3098 3098 3099 3100 3101 3103 3105 3107 3108 3108 3110 3111 3112 3114 3115 3116 3117 3117 3118 3119 3120 3121 3123 3123 3121 3120 3119 3117 3116 3117 3119 3119 3120 3122 3122 3123 3123 3122 3123 3122 3122 3121 3121 3128 3135 3131 3125 3124 3123 3122 3123 3125 3124 3116 3110 3112 3112 3112 3116 3121 3124 3125 3127 3130 3133 3136 3139 3142 3146
3103 3101 3100 3099 3099 3100 3100 3100 3100 3100 3101 3101 3102 3104 3105 3102 3099 3097 3096 3098 3100 3100 3101 3102 3104 3105 3106 3107 3108 3109 3110 3111 3112 3114 3114 3115 3115 3115 3116 3117 3119 3121 3122 3121 3119 3118 3116 3114 3114 3115 3116 3118 3119 3120 3122 3123 3122 3122 3121 3121 3121 3122 3124 3127 3127 3125 3124 3124 3123 3124 3126 3123 3115 3112 3111 3111 3113 3116 3119 3122 3124 3127 3129 3132 3135 3138 3140 3144
3103 3102 3101 3100 3100 3100 3101 3101 3101 3101 3102 3102 3104 3105 3104 3102 3101 3099 3098 3099 3101 3101 3101 3103 3104 3104 3105 3106 3107 3107 3108 3109 3110 3112 3112 3113 3113 3113 3114 3115 3116 3118 3119 3119 3118 3116 3114 3113 3111 3112 3114 3117 3118 3119 3121 3121 3121 3120 3120 3122 3123 3124 3123 3124 3127 3126 3124 3125 3124 3123 3125 3121 3117 3115 3113 3114 3116 3117 3119 3122 3124 3127 3129 3130 3132 3136 3138 3141
3104 3104 3102 3101 3101 3101 3101 3102 3102 3102 3103 3103 3105 3105 3103 3102 3102 3102 3101 3102 3102 3102 3102 3102 3102 3102 3103 3104 3105 3106 3107 3107 3108 3110 3110 3110 3110 3111 3112 3113 3114 3115 3117 3118 3117 3115 3114 3112 3109 3109 3113 3116 3117 3118 3119 3119 3120 3119 3120 3122 3123 3124 3123 3122 3125 3125 3124 3125 3124 3124 3124 3122 3121 3117 3114 3116 3117 3117 3119 3122 3124 3128 3128 3129 3131 3135 3137 3140
3105 3104 3102 3102 3103 3102 3102 3103 3103 3103 3104 3104 3104 3103 3102 3102 3103 3103 3103 3103 3103 3104 3103 3101 3100 3100 3100 3101 3102 3104 3107 3107 3107 3108 3108 3108 3107 3107 3109 3111 3112 3113 3115 3117 3116 3116 3116 3113 3108 3107 3110 3114 3116 3118 3118 3118 3119 3119 3119 3121 3122 3123 3123 3121 3122 3124 3125 3126 3128 3128 3124 3121 3121 3117 3114 3116 3117 3117 3119 3121 3123 3126 3127 3129 3132 3134 3137 3141
3105 3104 3103 3104 3105 3104 3103 3103 3103 3104 3104 3104 3104 3104 3104 3104 3104 3103 3103 3104 3104 3104 3103 3101 3100 3099 3099 3099 3099 3101 3105 3105 3105 3107 3106 3105 3104 3105 3107 3109 3109 3111 3114 3116 3116 3116 3116 3113 3108 3107 3110 3113 3114 3115 3116 3115 3116 3118 3119 3120 3120 3121 3122 3122 3123 3124 3125 3127 3131 3131 3123 3117 3117 3116 3115 3117 3119 3120 3121 3121 3123 3125 3126 3129 3131 3134 3137 3140
3105 3105 3106 3106 3106 3105 3104 3104 3104 3105 3105 3104 3105 3106 3106 3105 3104 3104 3104 3104 3104 3103 3102 3101 3099 3098 3098 3098 3097 3099 3102 3104 3105 3105 3104 3104 3103 3103 3105 3107 3108 3109 3112 3114 3115 3116 3116 3113 3110 3108 3110 3112 3111 3112 3114 3113 3113 3116 3117 3118 3118 3119 3120 3121 3123 3123 3124 3127 3131 3132 3126 3119 3117 3118 3119 3119 3120 3122 3122 3123 3124 3125 3126 3128 3131 3134 3136 3139
3105 3106 3107 3107 3107 3106 3105 3105 3105 3106 3106 3105 3106 3107 3106 3105 3105 3105 3105 3105 3104 3103 3102 3101 3099 3099 3099 3097 3096 3098 3100 3102 3104 3103 3103 3103 3102 3102 3103 3105 3107 3107 3110 3112 3113 3115 3114 3112 3110 3107 3108 3109 3109 3110 3112 3112 3112 3113 3115 3116 3117 3119 3120 3120 3123 3124 3124 3126 3128 3130 3127 3121 3120 3121 3121 3121 3120 3121 3123 3124 3125 3126 3128 3129 3131 3133 3135 3137
3106 3107 3108 3107 3107 3107 3106 3106 3107 3108 3108 3107 3107 3107 3105 3105 3106 3106 3105 3105 3105 3104 3104 3102 3101 3101 3100 3098 3096 3097 3099 3101 3102 3102 3102 3101 3101 3101 3101 3104 3106 3107 3108 3110 3111 3113 3114 3112 3110 3108 3106 3106 3107 3108 3110 3111 3112 3112 3114 3115 3117 3119 3120 3121 3123 3124 3125 3127 3128 3129 3127 3124 3123 3122 3122 3122 3122 3121 3122 3125 3127 3127 3129 3130 3132 3133 3135 3137
3107 3108 3108 3107 3107 3107 3106 3107 3109 3109 3109 3108 3108 3108 3106 3105 3106 3106 3105 3105 3105 3105 3105 3104 3103 3102 3101 3099 3097 3096 3097 3100 3101 3100 3100 3101 3101 3101 3101 3103 3105 3106 3107 3108 3109 3112 3113 3112 3111 3109 3107 3105 3104 3105 3107 3109 3111 3111 3112 3114 3116 3118 3119 3120 3122 3123 3127 3129 3129 3129 3128 3125 3124 3124 3122 3122 3124 3123 3123 3125 3127 3128 3129 3131 3132 3133 3135 3137
3107 3108 3108 3107 3107 3107 3107 3107 3109 3110 3108 3107 3107 3107 3106 3105 3105 3105 3105 3105 3105 3105 3104 3104 3104 3103 3102 3101 3098 3097 3098 3098 3099 3099 3099 3100 3100 3101 3101 3103 3105 3106 3106 3107 3108 3109 3110 3111 3112 3111 3110 3107 3106 3106 3106 3108 3110 3109 3109 3111 3114 3116 3118 3120 3121 3122 3125 3126 3126 3130 3131 3125 3123 3126 3123 3120 3123 3125 3125 3125 3127 3128 3129 3131 3131 3133 3135 3137
3108 3108 3108 3107 3107 3107 3106 3107 3108 3108 3107 3106 3106 3106 3105 3104 3104 3104 3104 3104 3104 3104 3104 3104 3104 3103 3103 3102 3100 3099 3099 3098 3098 3098 3098 3098 3099 3099 3101 3103 3104 3105 3106 3106 3107 3108 3109 3110 3112 3112 3110 3109 3107 3106 3104 3105 3108 3110 3110 3110 3113 3115 3117 3119 3121 3121 3123 3123 3124 3130 3132 3127 3124 3127 3126 3122 3122 3124 3125 3126 3127 3127 3129 3129 3130 3133 3136 3136
3108 3109 3110 3108 3106 3106 3106 3107 3107 3108 3108 3107 3106 3105 3104 3104 3103 3103 3103 3103 3103 3104 3104 3104 3104 3103 3103 3103 3102 3101 3100 3099 3098 3098 3098 3097 3097 3098 3099 3102 3104 3105 3105 3106 3106 3108 3109 3109 3110 3111 3110 3108 3106 3105 3104 3105 3106 3108 3110 3111 3112 3113 3115 3118 3119 3119 3121 3122 3123 3126 3129 3127 3126 3127 3127 3124 3123 3123 3124 3126 3127 3128 3128 3129 3130 3133 3136 3137
3107 3109 3110 3108 3106 3107 3107 3107 3108 3108 3108 3107 3106 3104 3104 3103 3103 3103 3102 3102 3103 3103 3103 3103 3103 3103 3103 3103 3102 3101 3101 3100 3099 3098 3098 3097 3096 3097 3098 3100 3103 3104 3104 3106 3106 3107 3108 3107 3108 3109 3110 3109 3107 3106 3106 3106 3105 3105 3106 3108 3110 3111 3113 3115 3117 3118 3119 3120 3121 3123 3126 3126 3125 3127 3127 3126 3126 3126 3125 3125 3126 3127 3128 3128 3129 3130 3133 3136
3106 3108 3109 3108 3106 3107 3108 3108 3107 3107 3106 3106 3105 3104 3104 3103 3103 3103 3102 3101 3102 3102 3102 3102 3102 3102 3102 3102 3102 3101 3101 3100 3099 3099 3098 3097 3097 3097 3099 3100 3103 3103 3104 3105 3107 3107 3106 3106 3107 3107 3108 3109 3108 3107 3106 3105 3104 3103 3103 3105 3106 3108 3110 3112 3114 3115 3117 3118 3118 3120 3123 3124 3124 3126 3127 3126 3126 3126 3125 3125 3124 3125 3126 3127 3128 3129 3130 3134
3104 3104 3105 3104 3104 3105 3106 3106 3105 3105 3105 3105 3103 3103 3103 3102 3102 3102 3102 3101 3101 3102 3102 3101 3101 3101 3101 3102 3102 3102 3101 3100 3099 3098 3097 3097 3098 3099 3100 3101 3102 3103 3104 3105 3106 3107 3107 3105 3106 3106 3106 3106 3107 3107 3106 3105 3104 3103 3103 3104 3105 3106 3107 3110 3111 3113 3116 3117 3116 3118 3121 3122 3122 3124 3125 3126 3126 3125 3126 3126 3124 3124 3125 3126 3128 3129 3130 3132
3102 3102 3101 3101 3102 3102 3103 3104 3104 3104 3104 3104 3103 3102 3102 3102 3102 3101 3101 3101 3101 3101 3101 3101 3101 3101 3101 3101 3102 3102 3102 3101 3100 3099 3099 3099 3100 3100 3101 3102 3102 3102 3103 3105 3105 3106 3106 3105 3106 3106 3105 3104 3104 3105 3105 3105 3104 3103 3102 3104 3105 3105 3105 3107 3109 3111 3114 3116 3116 3117 3119 3120 3121 3122 3123 3125 3126 3125 3125 3126 3125 3125 3125 3125 3127 3130 3131 3131
3101 3100 3100 3100 3100 3100 3101 3103 3103 3103 3103 3102 3102 3101 3101 3101 3101 3100 3100 3100 3100 3100 3101 3101 3100 3100 3100 3101 3102 3102 3101 3101 3101 3101 3102 3102 3102 3102 3102 3102 3102 3101 3102 3104 3104 3104 3105 3105 3106 3106 3104 3102 3102 3102 3103 3103 3104 3104 3103 3104 3105 3105 3105 3105 3106 3108 3111 3113 3115 3116 3116 3118 3119 3121 3122 3124 3126 3125 3124 3125 3126 3126 3125 3126 3127 3130 3131 3132
3099 3099 3099 3099 3098 3099 3100 3101 3102 3102 3102 3101 3101 3100 3100 3100 3100 3100 3099 3099 3099 3100 3100 3099 3099 3099 3100 3101 3100 3099 3099 3099 3100 3100 3101 3102 3102 3103 3103 3103 3102 3101 3101 3103 3103 3103 3104 3104 3104 3104 3102 3100 3099 3099 3100 3102 3102 3101 3102 3104 3104 3104 3105 3105 3106 3107 3108 3110 3112 3112 3112 3114 3117 3118 3120 3123 3124 3124 3124 3124 3125 3125 3126 3127 3128 3129 3130 3131